Moab, UT

2:01 AM MDT on October 23, 2019 (GMT -0600)
Canyonlands

Weather History for KCNY - August, 2019

Change the Weather History Date:

Sunday, August 18, 2019

  Actual Average Record
Temperature  
Mean Temperature 79 °F 77 °F  
Max Temperature 99 °F 92 °F 107 °F (1952)
Min Temperature 58 °F 62 °F 47 °F (1960)
Degree Days  
Heating Degree Days 0 0  
Month to date heating degree days 0 0  
Since 1 June heating degree days 23 17  
Since 1 July heating degree days 0 0  
Cooling Degree Days 14 12  
Month to date cooling degree days 291 246  
Year to date cooling degree days 1064 1039  
Since 1 June cooling degree days 1049 975  
Growing Degree Days 30 (Base 50)    
Moisture  
Dew Point 20 °F    
Average Humidity 13    
Maximum Humidity 20    
Minimum Humidity 5    
Precipitation  
Precipitation 0.00 in 0.02 in 0.53 in (1989)
Month to date precipitation 0.02 0.48  
Year to date precipitation 6.17 5.02  
Sea Level Pressure  
Sea Level Pressure 29.76 in    
Wind  
Wind Speed 5 mph (SW)    
Max Wind Speed 20 mph    
Max Gust Speed 39 mph    
Visibility 10 miles    
Events      
T = Trace of Precipitation, MM = Missing Value Source: NWS Daily Summary

Daily Weather History Graph

Daily Weather History Graph

Search for Another Location

Airport or City:

Astronomy

Aug. 18, 2019 Rise Set
Actual Time 6:35 AM MDT 8:09 PM MDT
Civil Twilight 6:07 AM MDT 8:37 PM MDT
Nautical Twilight 5:33 AM MDT 9:11 PM MDT
Astronomical Twilight 4:57 AM MDT 9:47 PM MDT
Moon 10:07 PM MDT (8/18) 9:22 AM MDT (8/18)
Length of Visible Light 14h 30m
Length of Day
13h 34m
Waning Gibbous, 91% of the Moon is Illuminated
Aug 18
Waning Gibbous
Aug 23
Last Quarter
Aug 30
New
Sep 5
First Quarter
Sep 13
Full

Hourly Weather History & Observations

Time (MDT) Temp. Dew Point Humidity Pressure Visibility Wind Dir Wind Speed Gust Speed Precip Events Conditions
12:53 AM 72.0 °F 19.9 °F 14% 29.67 in 10.0 mi NNE 3.5 mph - N/A   Clear
1:53 AM 69.1 °F 21.0 °F 16% 29.68 in 10.0 mi West 3.5 mph - N/A   Clear
2:53 AM 66.0 °F 19.9 °F 17% 29.69 in 10.0 mi SSW 4.6 mph - N/A   Clear
3:53 AM 64.9 °F 19.9 °F 18% 29.70 in 10.0 mi WSW 3.5 mph - N/A   Clear
4:53 AM 63.0 °F 21.0 °F 20% 29.72 in 10.0 mi WSW 4.6 mph - N/A   Clear
5:53 AM 64.0 °F 19.9 °F 18% 29.74 in 10.0 mi WNW 5.8 mph - N/A   Clear
6:53 AM 62.1 °F 19.9 °F 20% 29.77 in 10.0 mi Calm Calm - N/A   Clear
7:53 AM 66.0 °F 21.9 °F 19% 29.80 in 10.0 mi Calm Calm - N/A   Clear
8:53 AM 77.0 °F 23.0 °F 13% 29.81 in 10.0 mi ENE 3.5 mph - N/A   Clear
9:53 AM 82.0 °F 25.0 °F 12% 29.81 in 10.0 mi Variable 3.5 mph - N/A   Clear
10:53 AM 87.1 °F 25.0 °F 10% 29.82 in 10.0 mi Variable 4.6 mph - N/A   Clear
11:53 AM 91.9 °F 21.9 °F 8% 29.81 in 10.0 mi SW 10.4 mph - N/A   Clear
12:53 PM 93.9 °F 19.0 °F 7% 29.81 in 10.0 mi North - - N/A   Clear
1:53 PM 96.1 °F 19.0 °F 6% 29.79 in 10.0 mi SSW 5.8 mph - N/A   Clear
2:53 PM 97.0 °F 18.0 °F 6% 29.78 in 10.0 mi South 10.4 mph 18.4 mph N/A   Clear
3:53 PM 98.1 °F 18.0 °F 6% 29.75 in 10.0 mi WSW 9.2 mph - N/A   Clear
4:53 PM 96.1 °F 18.0 °F 6% 29.74 in 10.0 mi Variable 3.5 mph - N/A   Clear
5:53 PM 96.1 °F 19.0 °F 6% 29.73 in 10.0 mi SSW 9.2 mph 23.0 mph N/A   Clear
6:53 PM 95.0 °F 21.0 °F 7% 29.74 in 10.0 mi SW 11.5 mph - N/A   Clear
7:53 PM 90.0 °F 18.0 °F 7% 29.75 in 10.0 mi SW 9.2 mph - N/A   Clear
8:53 PM 81.0 °F 19.0 °F 10% 29.76 in 10.0 mi SW 8.1 mph - N/A   Clear
9:53 PM 79.0 °F 19.0 °F 11% 29.77 in 10.0 mi SW 10.4 mph - N/A   Clear
10:53 PM 77.0 °F 17.1 °F 10% 29.78 in 10.0 mi Calm Calm - N/A   Clear
11:53 PM 78.1 °F 17.1 °F 10% 29.78 in 10.0 mi Calm Calm - N/A   Clear